Location: Franzen
(48.6167°N, 15.3833°E)
Time: 03:30:44
(UTC+00:00)

Transit 2A - Pass Details

Date: 06 August 2021
Orbit: 594 x 964 km, 66.7° (Epoch: 21 September)

Event Time Altitude Azimuth Distance (km) Brightness Sun altitude
Rises 12:47:21 0° 322° (NW) 3,249 9.2 51.7°
Reaches altitude 10° 12:49:40 10° 319° (NW) 2,375 8.6 51.4°
Maximum altitude 12:55:05 62° 240° (WSW) 961 8.6 50.8°
Drops below altitude 10° 13:01:01 10° 161° (SSE) 2,590 9.1 50.1°
Sets 13:03:39 0° 158° (SSE) 3,567 9.6 49.8°
